Karluk, AK (99608)

5:51 AM AKDT on March 30, 2017 (GMT -0800)
Akhiok AP, Akhiok, AK | | Change Station

Elev 43 ft 56.94 °N, 154.18 °W | Updated 7 minutes ago

Overcast
Overcast
34 °F
Feels Like 21 °F
N
26
Wind Variable Wind from ENE
Gusts 33 mph

Today
High -- | Low -- °F
--% Chance of Precip.
Yesterday
High -- | Low -- °F
Precip. -- in
Pressure 29.36 in
Visibility -9999.0 miles
Clouds Mostly Cloudy 2500 ft
Overcast 3200 ft
Windchill 21 °F
Dew Point 27 °F
Humidity 75%
Rainfall 0.00 in
Snow Depth Not available.
7:50 AM 8:55 PM
Waxing Crescent, 8% visible
SPECI PAKH 301344Z AUTO 07023G29KT BKN025 OVC032 01/M03 A2936 RMK AO2 PK WND 07031/1330 PWINO FZRANO $
Pressure 29.36 in
Visibility -9999.0 miles
Clouds Mostly Cloudy 2500 ft
Overcast 3200 ft
Windchill 21 °F
Dew Point 27 °F
Humidity 75%
Rainfall 0.00 in
Snow Depth Not available.
7:50 AM 8:55 PM
Waxing Crescent, 8% visible
SPECI PAKH 301344Z AUTO 07023G29KT BKN025 OVC032 01/M03 A2936 RMK AO2 PK WND 07031/1330 PWINO FZRANO $

Get Severe Weather Alerts

Thanks for signing up!

Be on the lookout for a verification email in your inbox.

You'll start receiving the daily forecast at 8 AM.

×

10-Day Weather Forecast

Almanac

Astronomy

Mar. 30, 2017 Rise Set
Actual Time
Civil Twilight
Nautical Twilight
Astronomical Twilight
Moon
Length of Visible Light
Length of Day
Tomorrow will be .
, % of the Moon is Illuminated

Today's Extremes

State Highs State Lows

Community

WunderPhotos

Upload Photos

1,962,540 photos uploaded!

WunderBlog® & News

Nearby

Air Quality

  Air Quality AQ Index Pollutant
Not available.

Snow Depth

Station Depth Elevation

Earthquake Activity

City Distance Mag. Time & Date
Minimum magnitude displayed is 2.5.

Earthquake Activity

City Distance Mag. Time & Date
Minimum magnitude displayed is 2.5.

Coastal Water Temperatures

Place Temperature

Stations

Nearby Weather Stations

Station Location Temp. Windchill Dew Point Humidity Wind Precip. Elev Updated Type
                   

Watches & Warnings

There are currently no watches in effect.